Flag for U.S.A. Weather past 2 weeks in Pocatello, Idaho, U.S.A.

Now
36 °F

Low clouds.


Feels Like: 25 °F
Forecast: 25 / 42 °F
Wind: 21 mph from Southwest

Location: Pocatello Regional Airport

Current Time: Dec 22, 2014 at 12:33:42 AM

Latest Report: Dec 21, 2014 at 11:53 PM


Visibility: 10 mi

Pressure: 29.99 "Hg

Humidity: 92%

Dew point: 34 °F

Location of PocatelloLocation

Historic Weather in Pocatello — Graph

°F

Pocatello temperature yesterday

Maximum temperature yesterday: 47 °F (at 11:53 AM)
Minimum temperature yesterday: 36 °F (at 9:53 PM)
Average temperature yesterday: 41 °F

Past Weeks' High & Low Weather Summary

 TemperatureHumidityPressure
High59 °F (Dec 12, 12:53 PM)100% (Dec 7, 3:53 AM)30.39 "Hg (Dec 7, 3:53 AM)
Low16 °F (Dec 15, 7:53 AM)33% (Dec 12, 1:53 PM)29.71 "Hg (Dec 12, 3:53 PM)
Average36 °F84%30.11 "Hg
* Reported Dec 6 10:53 PM — Dec 21 10:53 PM, Pocatello, Weather by CustomWeather, © 2014

Note: Actual official high and low records may vary slightly from our data, if they occured in-between our weather recording intervals... More about our weather records

Advertising

Pocatello weather history for previous 24 hours

 ConditionsComfort  
Time TempWeatherWind HumidityBarometerVisibility
10:53 PM
Dec 21
36 °FOvercast.21 mph92%30.01 "Hg10 mi
9:53 PM36 °FOvercast.20 mph97%29.99 "Hg10 mi
8:53 PM37 °FPassing clouds.9 mph96%29.98 "Hg10 mi
7:53 PM38 °FPassing clouds.15 mph93%29.95 "Hg10 mi
6:53 PM39 °FOvercast.15 mph93%29.93 "Hg10 mi
5:53 PM40 °FSunny.15 mph89%29.92 "Hg10 mi
4:53 PM42 °FBroken clouds.21 mph85%29.86 "Hg10 mi
3:53 PM45 °FPartly sunny.23 mph82%29.81 "Hg10 mi
2:53 PM46 °FPartly sunny.26 mph86%29.80 "Hg10 mi
1:53 PM47 °FPartly sunny.31 mph86%29.77 "Hg10 mi
12:53 PM47 °FMostly cloudy.30 mph90%29.80 "Hg10 mi
11:53 AM47 °FMostly cloudy.36 mph86%29.79 "Hg10 mi
10:53 AM46 °FOvercast.33 mph89%29.80 "Hg10 mi
9:53 AM44 °FOvercast.26 mph93%29.80 "Hg10 mi
8:53 AM43 °FPassing clouds.24 mph97%29.80 "Hg10 mi
7:53 AM43 °FOvercast.23 mph93%29.81 "Hg10 mi
6:53 AM43 °FOvercast.25 mph89%29.80 "Hg10 mi
5:53 AM41 °FOvercast.23 mph89%29.82 "Hg10 mi
4:53 AM40 °FLight rain. Overcast.21 mph89%29.82 "Hg10 mi
3:53 AM39 °FOvercast.17 mph93%29.85 "Hg10 mi
2:53 AM38 °FLight rain. Mostly cloudy.17 mph93%29.89 "Hg10 mi
1:53 AM37 °FLight rain. Overcast.15 mph96%29.91 "Hg10 mi
12:53 AM37 °FLight rain. Overcast.12 mph96%29.91 "Hg10 mi
Weather by CustomWeather, © 2014

See weather overviewHow to use our weather pages